Regional Weather Roundup
Issued by NWS

Home | Current Version | Previous Version | Text Only | Print | Product List | Glossary On
Versions: 1 2 3 4 5 6 7 8 9 10 11 12 13 14 15 16 17 18 19 20 21 22 23 24 25 26 27 28 29 30 31 32 33 34 35 36 37 38 39 40 41 42 43 44 45 46 47 48 49 50
137
ASUS42 KFFC 030703
RWRGA
WEATHER ROUNDUP FOR GEORGIA
NATIONAL WEATHER SERVICE PEACHTREE CITY GA
300 AM EDT TUE MAY 03 2016

NOTE: "FAIR" INDICATES FEW OR NO CLOUDS BELOW 12,000 FEET WITH NO
SIGNIFICANT WEATHER AND/OR OBSTRUCTIONS TO VISIBILITY.

* = USE WITH CAUTION. THE STATIONS MARKED WITH AN ASTERISK MAY NOT
REPORT WEATHER SUCH AS PRECIPITATION, FOG, OR THUNDER AND ARE NOT
QUALITY CONTROLLED BY NWS.

THE REMARK "TC" DENOTES TEMPERATURE READING IN DEGREES CELSIUS.

GAZ001>058-030800-
NORTH GEORGIA

CITY           SKY/WX    TMP DP  RH WIND       PRES   REMARKS
ATLANTA        MOCLDY    67  61  81 SW7       29.89F
ATHENS         CLOUDY    67  66  97 CALM      29.88F
CHAMBLEE       CLOUDY    65  65 100 S5        29.89F
PEACHTREE CITY CLOUDY    68  64  87 CALM      29.90F
ROME           CLOUDY    65  64  97 CALM      29.88F
WEST ATLANTA   CLOUDY    65  62  90 SW3       29.89F
GAINESVILLE    CLOUDY    64  63  96 W7        29.91F
CARTERSVILLE   CLOUDY    65  64  97 CALM      29.89F


CITY           SKY/WX    TMP DP  RH WIND       PRES   REMARKS
DALTON*        CLOUDY    63  63 100 CALM      29.90S
CANTON*        CLOUDY    63  61  94 CALM      29.90F FOG
BLAIRSVILLE*     N/A    N/A N/A N/A MISG      29.91F
$$

GAZ059>098-102>109-030800-
CENTRAL GEORGIA

CITY           SKY/WX    TMP DP  RH WIND       PRES   REMARKS
AUGUSTA-BUSH   CLOUDY    66  66 100 SE3       29.88F
AUGUSTA-DANIEL CLOUDY    68  65  90 SE7       29.89F
COLUMBUS       CLOUDY    68  64  87 W3        29.90F
MACON          CLOUDY    68  67  96 SE3       29.90F


CITY           SKY/WX    TMP DP  RH WIND       PRES   REMARKS
LAGRANGE*      CLOUDY    69  69 100 CALM      29.90F
SYLVANIA*      CLOUDY    72  72 100 SW5       29.90F FOG
MILLEDGEVILLE* CLOUDY    66  64  94 CALM      29.89F FOG
$$

GAZ099>101-110>166-030800-
SOUTH GEORGIA

CITY           SKY/WX    TMP DP  RH WIND       PRES   REMARKS
SAVANNAH       CLOUDY    74  71  91 S6        29.90F
VALDOSTA       CLOUDY    71  69  93 S5        29.91F
ALMA           MOCLDY    70  69  97 S3        29.89F
ST SIMONS      CLOUDY    74  73  97 S6        29.90F
ALBANY         PTCLDY    71  68  90 SW3       29.93S
BRUNSWICK      CLOUDY    77  73  88 SW3       29.90F


CITY           SKY/WX    TMP DP  RH WIND       PRES   REMARKS
BAINBRIDGE*    CLOUDY    72  70  94 W3        29.92S
MOULTRIE*      PTCLDY    72  68  88 CALM      29.92F
VIDALIA*       CLOUDY    70  68  94 CALM      29.89F
WAYCROSS*      MOCLDY    70  70  99 SW6       29.90F
DOUGLAS*       CLOUDY    72  70  94 CALM      29.92F
$$




USA.gov is the U.S. government's official web portal to all federal, state and local government web resources and services.